Universal City, TX

11:51 PM CDT on September 29, 2016 (GMT -0500)
Randolph Air Force Base

Weather History for KRND - January, 2015

Change the Weather History Date:

Sunday, January 11, 2015

  Actual Average Record
Temperature  
Mean Temperature 44 °F -  
Max Temperature 52 °F 60 °F 77 °F (2000)
Min Temperature 35 °F 41 °F 28 °F (1997)
Degree Days  
Heating Degree Days 22    
Moisture  
Dew Point 38 °F    
Average Humidity 90    
Maximum Humidity 100    
Minimum Humidity 74    
Precipitation  
Precipitation 0.17 in - - ()
Sea Level Pressure  
Sea Level Pressure 30.19 in    
Wind  
Wind Speed 6 mph (North)    
Max Wind Speed 12 mph    
Max Gust Speed -    
Visibility 8 miles    
Events Rain    
Averages and records for this station are not official NWS values.
T = Trace of Precipitation, MM = Missing Value Source: NWS Daily Summary

Daily Weather History Graph

Daily Weather History Graph

Search for Another Location

Airport or City:

Trip Planner

Search our weather history database for the weather conditions in past years. The results will help you decide how hot, cold, wet, or windy it might be!

Date:

Astronomy

Jan. 11, 2015 Rise Set
Actual Time 7:29 AM CST 5:53 PM CST
Civil Twilight 7:03 AM CST 6:19 PM CST
Nautical Twilight 6:33 AM CST 6:48 PM CST
Astronomical Twilight 6:05 AM CST 7:17 PM CST
Moon 11:48 PM CST (1/11) 11:12 AM CST (1/11)
Length of Visible Light 11h 15m
Length of Day
10h 24m
Waning Gibbous, 66% of the Moon is Illuminated
Jan 11
Waning Gibbous
Jan 13
Last Quarter
Jan 20
New
Jan 26
First Quarter
Feb 3
Full

Hourly Weather History & Observations

Time (CST) Temp. Windchill Dew Point Humidity Pressure Visibility Wind Dir Wind Speed Gust Speed Precip Events Conditions
12:03 AM 35.6 °F 28.6 °F 33.8 °F 93% 30.26 in 4.0 mi NNE 9.2 mph - N/A Rain Light Rain
12:08 AM 35.6 °F 29.2 °F 33.8 °F 93% 30.25 in 4.0 mi NNE 8.1 mph - N/A Rain Heavy Rain
12:13 AM 35.6 °F 29.2 °F 33.8 °F 93% 30.27 in 5.0 mi North 8.1 mph - N/A Rain Rain
12:18 AM 35.6 °F 28.6 °F 33.8 °F 93% 30.26 in 8.0 mi North 9.2 mph - N/A Rain Rain
12:23 AM 35.6 °F 29.9 °F 33.8 °F 93% 30.25 in 10.0 mi North 6.9 mph - N/A Rain Light Rain
12:33 AM 35.6 °F 28.0 °F 33.8 °F 93% 30.26 in 5.0 mi NNW 10.4 mph - N/A Rain Light Rain
12:38 AM 35.6 °F 28.6 °F 33.8 °F 93% 30.25 in 4.0 mi North 9.2 mph - N/A Rain Heavy Rain
12:43 AM 35.6 °F 27.5 °F 33.8 °F 93% 30.23 in 5.0 mi North 11.5 mph - N/A Rain Rain
12:48 AM 35.6 °F 29.2 °F 33.8 °F 93% 30.23 in 7.0 mi NNE 8.1 mph - N/A Rain Light Rain
12:58 AM 35.6 °F 29.9 °F 33.8 °F 93% 30.26 in 10.0 mi NNE 6.9 mph - 0.16 in Rain Light Rain
1:08 AM 35.6 °F 29.2 °F 33.8 °F 93% 30.23 in 10.0 mi NNE 8.1 mph - N/A Rain Light Rain
1:09 AM 35.6 °F 29.9 °F 33.8 °F 93% 30.24 in 10.0 mi Variable 6.9 mph - N/A Rain Light Rain
1:24 AM 35.6 °F 32.8 °F 33.8 °F 93% 30.24 in 10.0 mi North 3.5 mph - N/A Rain Light Rain
1:35 AM 35.6 °F 30.7 °F 33.8 °F 93% 30.23 in 10.0 mi North 5.8 mph - N/A   Overcast
1:58 AM 35.6 °F 29.2 °F 33.8 °F 93% 30.24 in 10.0 mi North 8.1 mph - 0.01 in   Overcast
2:00 AM 35.6 °F 29.2 °F 33.8 °F 93% 30.22 in 10.0 mi North 8.1 mph - N/A   Overcast
2:05 AM 35.6 °F 32.8 °F 33.8 °F 93% 30.23 in 10.0 mi NNW 3.5 mph - N/A   Overcast
2:10 AM 35.6 °F 29.9 °F 33.8 °F 93% 30.22 in 10.0 mi North 6.9 mph - N/A   Light Drizzle
2:25 AM 35.6 °F 30.7 °F 33.8 °F 93% 30.22 in 10.0 mi NNW 5.8 mph - N/A   Overcast
2:35 AM 35.6 °F 30.7 °F 33.8 °F 93% 30.21 in 10.0 mi North 5.8 mph - N/A   Overcast
2:45 AM 35.6 °F 29.9 °F 35.6 °F 100% 30.20 in 10.0 mi North 6.9 mph - N/A   Overcast
2:58 AM 36.3 °F 32.5 °F 34.7 °F 94% 30.23 in 10.0 mi NNE 4.6 mph - 0.00 in   Overcast
3:07 AM 35.6 °F - 35.6 °F 100% 30.23 in 10.0 mi Variable 1.2 mph - N/A   Overcast
3:17 AM 35.6 °F - 33.8 °F 93% 30.23 in 10.0 mi Calm Calm - N/A   Overcast
3:47 AM 37.4 °F 33.8 °F 35.6 °F 93% 30.21 in 10.0 mi NNE 4.6 mph - N/A   Overcast
3:58 AM 36.7 °F 32.0 °F 34.9 °F 93% 30.22 in 10.0 mi North 5.8 mph - N/A   Overcast
4:33 AM 37.4 °F - 35.6 °F 93% 30.21 in 10.0 mi NNE 2.3 mph - N/A   Overcast
4:38 AM 37.4 °F - 35.6 °F 93% 30.21 in 8.0 mi Calm Calm - N/A   Overcast
4:53 AM 37.4 °F 34.9 °F 35.6 °F 93% 30.20 in 6.0 mi NNE 3.5 mph - N/A   Overcast
4:58 AM 36.9 °F - 35.2 °F 94% 30.22 in 5.0 mi North 1.2 mph - N/A   Overcast
5:03 AM 37.4 °F - 35.6 °F 93% 30.20 in 4.0 mi North 2.3 mph - N/A   Overcast
5:08 AM 37.4 °F - 35.6 °F 93% 30.20 in 5.0 mi NNE 2.3 mph - N/A   Overcast
5:17 AM 37.4 °F 33.8 °F 35.6 °F 93% 30.19 in 5.0 mi NNE 4.6 mph - N/A   Overcast
5:22 AM 37.4 °F 34.9 °F 35.6 °F 93% 30.20 in 5.0 mi North 3.5 mph - N/A   Overcast
5:32 AM 37.4 °F 34.9 °F 35.6 °F 93% 30.20 in 7.0 mi North 3.5 mph - N/A   Overcast
5:37 AM 37.4 °F 34.9 °F 35.6 °F 93% 30.20 in 7.0 mi NNE 3.5 mph - N/A   Overcast
5:47 AM 37.4 °F 33.8 °F 35.6 °F 93% 30.19 in 6.0 mi NNE 4.6 mph - N/A   Overcast
5:57 AM 37.4 °F 33.8 °F 35.6 °F 93% 30.19 in 7.0 mi NNE 4.6 mph - N/A   Overcast
5:58 AM 36.9 °F 33.1 °F 35.8 °F 96% 30.21 in 7.0 mi NNE 4.6 mph - N/A   Overcast
6:03 AM 37.4 °F 33.8 °F 35.6 °F 93% 30.19 in 8.0 mi North 4.6 mph - N/A   Overcast
6:13 AM 37.4 °F 33.8 °F 35.6 °F 93% 30.19 in 10.0 mi NNE 4.6 mph - N/A   Overcast
6:18 AM 37.4 °F 33.8 °F 35.6 °F 93% 30.19 in 10.0 mi NNE 4.6 mph - N/A   Mostly Cloudy
6:28 AM 37.4 °F 32.8 °F 35.6 °F 93% 30.19 in 10.0 mi North 5.8 mph - N/A   Overcast
6:32 AM 37.4 °F 32.8 °F 35.6 °F 93% 30.19 in 10.0 mi NNE 5.8 mph - N/A   Overcast
6:42 AM 37.4 °F 32.8 °F 35.6 °F 93% 30.19 in 10.0 mi NNE 5.8 mph - N/A   Overcast
6:47 AM 37.4 °F 33.8 °F 35.6 °F 93% 30.19 in 10.0 mi NNE 4.6 mph - N/A   Mostly Cloudy
6:52 AM 37.4 °F 33.8 °F 35.6 °F 93% 30.19 in 10.0 mi NNE 4.6 mph - N/A   Mostly Cloudy
6:58 AM 37.0 °F 32.4 °F 36.0 °F 96% 30.21 in 10.0 mi NNE 5.8 mph - N/A   Overcast
7:28 AM 37.4 °F 34.9 °F 35.6 °F 93% 30.20 in 8.0 mi NNE 3.5 mph - N/A   Overcast
7:38 AM 37.4 °F 34.9 °F 35.6 °F 93% 30.20 in 4.0 mi NNE 3.5 mph - N/A   Overcast
7:48 AM 37.4 °F 33.8 °F 35.6 °F 93% 30.20 in 3.0 mi NNE 4.6 mph - N/A   Overcast
7:53 AM 37.4 °F 33.8 °F 35.6 °F 93% 30.20 in 2.5 mi NNE 4.6 mph - N/A   Overcast
7:58 AM 37.2 °F 34.7 °F 36.3 °F 97% 30.22 in 2.5 mi NNE 3.5 mph - N/A   Overcast
8:03 AM 37.4 °F 34.9 °F 35.6 °F 93% 30.20 in 3.0 mi NNE 3.5 mph - N/A   Overcast
8:08 AM 37.4 °F 34.9 °F 35.6 °F 93% 30.20 in 4.0 mi NNE 3.5 mph - N/A   Overcast
8:13 AM 37.4 °F - 35.6 °F 93% 30.21 in 5.0 mi NNE 2.3 mph - N/A   Overcast
8:18 AM 37.4 °F - 35.6 °F 93% 30.21 in 5.0 mi NNE 2.3 mph - N/A   Overcast
8:33 AM 37.4 °F - 37.4 °F 100% 30.21 in 5.0 mi Variable 2.3 mph - N/A   Overcast
8:37 AM 37.4 °F - 37.4 °F 100% 30.21 in 6.0 mi North 2.3 mph - N/A   Overcast
8:47 AM 37.4 °F 34.9 °F 37.4 °F 100% 30.21 in 10.0 mi North 3.5 mph - N/A   Overcast
8:57 AM 39.2 °F 37.0 °F 37.4 °F 93% 30.22 in 10.0 mi North 3.5 mph - N/A   Overcast
8:58 AM 38.5 °F 36.1 °F 37.4 °F 96% 30.24 in 10.0 mi North 3.5 mph - N/A   Overcast
8:59 AM 39.2 °F 37.0 °F 37.4 °F 93% 30.22 in 10.0 mi NNW 3.5 mph - N/A   Overcast
9:19 AM 39.2 °F - 37.4 °F 93% 30.22 in 10.0 mi NNW 2.3 mph - N/A   Overcast
9:58 AM 40.5 °F - 38.3 °F 92% 30.24 in 10.0 mi Calm Calm - N/A   Overcast
10:08 AM 41.0 °F - 37.4 °F 87% 30.23 in 10.0 mi WNW 2.3 mph - N/A   Overcast
10:58 AM 42.1 °F - 39.2 °F 90% 30.24 in 10.0 mi NNE 1.2 mph - N/A   Overcast
11:58 AM 43.9 °F - 40.3 °F 87% 30.20 in 10.0 mi Calm Calm - N/A   Overcast
12:03 PM 44.6 °F - 41.0 °F 87% 30.18 in 10.0 mi Variable 1.2 mph - N/A   Overcast
12:58 PM 46.2 °F 45.0 °F 42.1 °F 85% 30.15 in 10.0 mi SSW 3.5 mph - N/A   Overcast
1:58 PM 47.8 °F - 43.0 °F 83% 30.12 in 10.0 mi South 5.8 mph - N/A   Overcast
2:58 PM 51.6 °F - 44.1 °F 75% 30.10 in 10.0 mi SSW 6.9 mph - N/A   Mostly Cloudy
3:08 PM 51.8 °F - 44.6 °F 76% 30.09 in 10.0 mi WSW 6.9 mph - N/A   Mostly Cloudy
3:53 PM 51.8 °F - 44.6 °F 76% 30.10 in 10.0 mi SW 6.9 mph - N/A   Scattered Clouds
3:58 PM 51.6 °F - 44.1 °F 75% 30.10 in 10.0 mi SW 5.8 mph - N/A   Scattered Clouds
4:13 PM 51.8 °F - 44.6 °F 76% 30.10 in 10.0 mi South 8.1 mph - N/A   Mostly Cloudy
4:23 PM 51.8 °F - 44.6 °F 76% 30.10 in 10.0 mi South 8.1 mph - N/A   Scattered Clouds
4:28 PM 51.8 °F - 44.6 °F 76% 30.09 in 10.0 mi South 8.1 mph - N/A   Mostly Cloudy
4:43 PM 51.8 °F - 44.6 °F 76% 30.09 in 10.0 mi South 8.1 mph - N/A   Scattered Clouds
4:58 PM 52.0 °F - 44.1 °F 74% 30.10 in 10.0 mi South 8.1 mph - N/A   Scattered Clouds
5:03 PM 51.8 °F - 44.6 °F 76% 30.09 in 10.0 mi South 8.1 mph - N/A   Mostly Cloudy
5:23 PM 50.0 °F - 42.8 °F 76% 30.09 in 10.0 mi South 9.2 mph - N/A   Scattered Clouds
5:53 PM 48.2 °F - 42.8 °F 82% 30.11 in 10.0 mi South 8.1 mph - N/A   Mostly Cloudy
5:58 PM 48.6 °F - 43.3 °F 82% 30.12 in 10.0 mi South 8.1 mph - N/A   Mostly Cloudy
6:28 PM 48.2 °F - 42.8 °F 82% 30.11 in 10.0 mi South 6.9 mph - N/A   Overcast
6:58 PM 48.0 °F - 43.5 °F 84% 30.14 in 10.0 mi SSW 6.9 mph - N/A   Overcast
7:43 PM 48.2 °F - 42.8 °F 82% 30.13 in 10.0 mi South 8.1 mph - N/A   Overcast
7:58 PM 47.7 °F - 43.3 °F 85% 30.16 in 10.0 mi South 6.9 mph - N/A   Overcast
8:53 PM 48.2 °F - 42.8 °F 82% 30.17 in 10.0 mi SSW 8.1 mph - N/A   Overcast
8:58 PM 47.3 °F - 43.3 °F 86% 30.18 in 10.0 mi SSW 8.1 mph - N/A   Overcast
9:58 PM 46.2 °F 41.2 °F 42.6 °F 87% 30.20 in 10.0 mi SW 10.4 mph - N/A   Overcast
10:53 PM 46.4 °F 42.4 °F 42.8 °F 87% 30.19 in 10.0 mi WSW 8.1 mph - N/A   Overcast
10:58 PM 45.5 °F 41.3 °F 42.4 °F 89% 30.20 in 10.0 mi SW 8.1 mph - N/A   Overcast
11:33 PM 44.6 °F 39.7 °F 42.8 °F 93% 30.17 in 10.0 mi WSW 9.2 mph - N/A   Overcast
11:58 PM 45.3 °F 41.1 °F 41.9 °F 88% 30.18 in 10.0 mi WSW 8.1 mph - N/A   Overcast